Regional Weather Roundup
Issued by NWS Newport/Morehead, NC

Current Version | Previous Version | Graphics & Text | Print | Product List | Glossary On
Versions: 1 2 3 4 5 6 7 8 9 10 11 12 13 14 15 16 17 18 19 20 21 22 23 24 25 26 27 28 29 30 31 32 33 34 35 36 37 38 39 40 41 42 43 44 45 46 47 48 49 50
551 ASUS42 KMHX 240225 RWRMHX WEATHER ROUNDUP FOR EASTERN NORTH CAROLINA NATIONAL WEATHER SERVICE NEWPORT/MOREHEAD CITY NC 900 PM EST FRI FEB 23 2018 NOTE: "FAIR" INDICATES FEW OR NO CLOUDS BELOW 12,000 FEET WITH NO SIGNIFICANT WEATHER AND/OR OBSTRUCTIONS TO VISIBILITY NCZ015>017-031-032-045>047-102-103-240300- NORTH COAST CITY SKY/WX TMP DP RH WIND PRES REMARKS EDENTON FAIR 58 56 91 SE5 30.34F ELIZABETH CITY FOG 50 50 100 SE7 30.35F VSB 1/2 KITTY HAWK FAIR N/A N/A N/A CALM 30.34F HAZE MANTEO FOG 48 48 100 CALM 30.36F VSB 1 $$ NCZ045>047-081-094-103-104-240300- CENTRAL COAST CITY SKY/WX TMP DP RH WIND PRES REMARKS FRISCO CLOUDY 57 55 93 CALM 30.36F $$ NCZ095-097-098-100-101-240300- SOUTHERN COAST CITY SKY/WX TMP DP RH WIND PRES REMARKS BEAUFORT MOCLDY 63 62 97 S5 30.35F CEDAR ISLAND NOT AVBL JACKSONVILLE FAIR 64 64 100 CALM 30.34F PINEY ISLAND NOT AVBL WILMINGTON FAIR 65 63 93 S6 30.34F $$ NCZ011>013-027>030-043-044-078>080-089-090>093-098-240300- COASTAL PLAIN CITY SKY/WX TMP DP RH WIND PRES REMARKS AHOSKIE FAIR 50 50 100 S5 30.32F CLINTON FAIR 66 64 93 CALM 30.33F ELIZABETHTOWN NOT AVBL GOLDSBORO FAIR 66 62 87 S6 30.31F GREENVILLE FOG 64 61 88 S3 30.33F VSB 3/4 HAVELOCK MOCLDY 65 64 97 SE5 30.36F KENANSVILLE CLOUDY 64 63 94 S5 30.33F KINSTON MOCLDY 64 63 94 S9 30.34F NEW BERN CLOUDY 63 62 97 S3 30.35F RICHLANDS MOCLDY 64 63 94 S8 30.34F ROCKY MOUNT FAIR 54 53 97 CALM 30.32F WASHINGTON FAIR 63 60 91 SE3 30.34S WHITEVILLE FAIR 65 62 91 S5 30.33F $$ AMZ130-135-150-152-154-156-158-170-250-252-270-ANZ085-086-088-633-658-670-240300- MARINE OBSERVATIONS STATION/POSITION TIME TEMP WIND PRES WAVE SWELL AIR SEA DIR/SP/G HT/PER HT/PER (UTC) (F) (DEG/KT/KT) (MB) (FT/S) (FT/S) CHESAPEAKE LIGHT NOT AVBL 64 E VA BEACH 0150 47 50 210/ 4/ 8 1028.1 5/10 5/10 DUCK 0200 47 150/ 7/ 7 1027.1 2 E DUCK 0200 46 N/A 4/ 8 2/11 OREGON INLET 0200 110/ 4/ 5 1027.8 13E OREGON INLT 0148 49 N/A 5/ 9 5/ 9 HATTERAS CG 0200 60 61 90/ 1/ 3 1027.9 DIAMOND BUOY 0210 71 73 200/ 10/ 14 1028.2 CAPE LOOKOUT 0200 170/ 5/ 6 1028.1 BEAUFORT LAB 0200 62 61 150/ 2/ 3 1027.8 30 SE NEW RVR IN 0108 69 69 220/ 8/ 10 1028.3 30 SE NEW RVR IN 0200 69 N/A 4/ 8 2/11 27 SE WRIGHTSVLE 0108 69 70 180/ 6/ 10 1028.1 5 SE WRIGHTSVLE 0208 62 60 180/ 6/ 10 1027.5 225 S CAPE HAT 0150 72 73 160/ 6/ 8 1028.9 5/10 5/10 41 SE CHARLESTON 0210 68 69 160/ 6/ 8 1027.2 $$

USA.gov is the U.S. government's official web portal to all federal, state and local government web resources and services.